Погода в Новой Слободе

Россия / Калужская область     54°56′29″N   36°46′50″E
темп.,
°C
ветер,
м/с
пор.,
м/с
влажн.,
%
обл.,
%
осадки,
мм/ч
давл.,
гПа
погр.,
м
5 августа, чт
чт500:00+13ююв118940 0.1 101710
03:00+14ююв118984 0.4 101716
06:00+13ююв1290100 0.1 101732
09:00+18юв2468100 0.1 1017372
12:00+23ю4548100 0.1 10161815
15:00+15св2295100 3.4 101565
18:00+16вюв159281 0.3 1014205
21:00+14в269796 0.5 1013125
6 августа, пт
пт600:00+14юв2295100 0.3 101223
03:00+14юв229511 0.4 101138
06:00+15ю139740 0.8 1011105
09:00+18ююв2591100 1.3 1011277
12:00+20ююз3792100 1.4 1011545
15:00+19в259688 3.3 1011278
18:00+21всв378188 0.0 1009457
21:00+18в4128799 0.0 1008370
7 августа, сб
сб700:00+16в4109791 0.9 1007230
03:00+16в2898100 2.1 1007195
06:00+17юв2697100 0.6 1007150
09:00+22ююв4108299 0.6 1007453
12:00+24ю496999 0.0 1008930
15:00+29ююв5946100 0.0 10072066
18:00+26ю4856100 0.0 1007951
21:00+19ююз2389100 0.1 100969
8 августа, вс
вс800:00+18з249593 0.0 1010109
03:00+16з2697100 0.0 1012157
06:00+15з2591100 0.0 1013148
09:00+18з3566100 0.0 1014506
12:00+22зюз3458100 0.0 10151096
15:00+24зюз3448100 0.0 10151735
18:00+24зсз235565 0.0 10161028
21:00+19ссз007235 0.0 101711
9 августа, пн
пн900:00+16зюз11850 0.0 101811
03:00+14зюз11905 0.0 101911
06:00+14з118664 0.0 101911
09:00+22ююз115745 0.0 1019385
12:00+26зюз11415 0.0 10191514
15:00+28зсз11364 0.0 10181801
18:00+26сз11493 0.0 101780
21:00+19вюв116849 0.0 101811